Location: PACMO
(41.3967°N, 90.3760°W)
Time: 04:48:00
(UTC-06:00)

Amateur Radio Satellites - All Passes

Search period start: 16 January 2017 04:18
Search period end: 17 January 2017 04:18
Location: PACMO, 41.3967°N, 90.3760°W

Satellite Date Start Highest point End Downlink Frequencies (MHz)
Time Altitude Azimuth
MOZHAYETS 4 16 Jan 04:19:35 04:21:00 11° 271° (W) 04:22:26
YUBILEINY 16 Jan 04:30:33 04:31:38 10° 289° (WNW) 04:32:42 435.215
RS-15 16 Jan 04:31:00 04:40:23 24° 351° (N) 04:49:50 29.354- 29.394
ITAMSAT 1 16 Jan 04:42:51 04:46:28 19° 298° (WNW) 04:50:05 435.822/435.867
CUBESAT XI-V 16 Jan 04:48:19 04:52:36 35° 263° (W) 04:56:56 437.345
HORYU 2 16 Jan 04:57:04 05:00:55 28° 97° (E) 05:04:46 437.375
PHONESAT 2.4 16 Jan 05:03:31 05:05:47 50° 169° (S) 05:08:04 2401.200-2431.200
STARS 16 Jan 05:04:19 05:07:40 21° 266° (W) 05:11:02 437.465
AO-7 16 Jan 05:06:02 05:13:42 42° 299° (WNW) 05:21:19 29.400- 29.500
LilacSat-2 16 Jan 05:10:27 05:12:15 13° 91° (E) 05:14:02 437.200
CUTE-I 16 Jan 05:16:49 05:20:23 18° 92° (E) 05:23:56 437.470
Cosmos 2491 16 Jan 05:18:52 05:21:53 12° 305° (NW) 05:24:55 435.465 / 435.565
GONETS M04 16 Jan 05:19:51 05:24:06 14° 57° (ENE) 05:28:19
AIST 2 16 Jan 05:21:41 05:25:56 66° 56° (NE) 05:30:08 435.215
NOAA 18 16 Jan 05:24:37 05:25:20 10° 88° (E) 05:26:03 137.9125
DOVE 4 16 Jan 05:25:35 05:28:25 17° 92° (E) 05:31:10 437.250
BRITE-PL 16 Jan 05:28:07 05:33:10 61° 286° (WNW) 05:37:46 437.365/2234.400
DANDE 16 Jan 05:36:08 05:39:07 25° 292° (WNW) 05:42:49 436.750
CUSAT 1 16 Jan 05:37:41 05:39:44 12° 305° (NW) 05:41:57 437.405
Cosmos 2499 16 Jan 05:40:40 05:45:28 18° 64° (ENE) 05:50:09 435.465 / 435.565
ISS 16 Jan 05:53:50 05:57:03 56° 32° (NNE) 06:00:16 145.825
Cubesat XI-IV 16 Jan 05:57:16 06:02:19 42° 99° (E) 06:07:20 437.490
GOMX 1 16 Jan 05:57:46 06:02:21 74° 285° (WNW) 06:06:38 467.674
STRAND 1 16 Jan 06:09:55 06:14:51 53° 72° (ENE) 06:19:49 437.568
HO-68 16 Jan 06:12:43 06:16:09 14° 88° (E) 06:19:34 435.675
NOAA 15 16 Jan 06:24:03 06:29:23 79° 103° (ESE) 06:34:42 137.62
HORYU 2 16 Jan 06:33:38 06:37:22 27° 292° (WNW) 06:41:06 437.375
PHONESAT 2.4 16 Jan 06:37:38 06:39:57 66° 184° (S) 06:42:17 2401.200-2431.200
LilacSat-2 16 Jan 06:43:04 06:46:45 44° 287° (WNW) 06:50:26 437.200
RS-15 16 Jan 06:47:53 06:58:27 31° 26° (NNE) 07:08:49 29.354- 29.394
CUTE-I 16 Jan 06:55:34 07:00:47 58° 288° (WNW) 07:06:00 437.470
NOAA 18 16 Jan 07:01:15 07:06:44 86° 105° (ESE) 07:12:12 137.9125
CUTE 1.7 + AOD 2 16 Jan 07:01:16 07:04:52 25° 95° (E) 07:08:25 437.475
AIST 2 16 Jan 07:02:09 07:03:50 12° 252° (WSW) 07:05:33 435.215
DOVE 4 16 Jan 07:02:22 07:06:19 37° 289° (WNW) 07:10:08 437.250
O/OREOS (USA 219) 16 Jan 07:07:35 07:12:03 73° 111° (ESE) 07:16:32 437.305
GONETS M04 16 Jan 07:13:56 07:22:46 69° 80° (E) 07:31:35
CUBEBUG 2 16 Jan 07:21:06 07:24:00 17° 93° (E) 07:26:56 437.445
PRISM 16 Jan 07:27:05 07:29:44 17° 65° (ENE) 07:32:24 437.425
CANX-2 16 Jan 07:28:57 07:33:14 61° 101° (E) 07:37:28 2200.000
CINEMA 3 16 Jan 07:29:09 07:33:20 87° 282° (WNW) 07:37:34 145.822/145.860
ISS 16 Jan 07:31:06 07:33:14 16° 228° (SW) 07:35:22 145.825
Cosmos 2499 16 Jan 07:32:15 07:39:29 77° 266° (W) 07:46:30 435.465 / 435.565
Cubesat XI-IV 16 Jan 07:37:48 07:42:08 26° 295° (WNW) 07:46:28 437.490
SO-50 16 Jan 07:46:43 07:49:37 16° 110° (ESE) 07:52:29 436.795
SEEDS 16 Jan 07:50:26 07:54:40 61° 100° (E) 07:58:52 437.485
STRAND 1 16 Jan 07:50:55 07:54:20 18° 268° (W) 07:57:47 437.568
HO-68 16 Jan 07:57:37 08:04:52 83° 106° (ESE) 08:12:02 435.675
UNISAT 6 16 Jan 07:59:11 08:00:07 11° 61° (ENE) 08:01:02 437.425
UWE-3 16 Jan 07:59:15 08:03:01 29° 96° (E) 08:06:51 435.000/436.395/437.385
COMPASS 1 16 Jan 08:05:19 08:09:30 58° 100° (E) 08:13:38 437.405
NOAA 15 16 Jan 08:05:37 08:08:29 15° 301° (WNW) 08:11:21 137.62
FUNcube-1 16 Jan 08:09:18 08:12:35 21° 94° (E) 08:15:55 145.935
PHONESAT 2.4 16 Jan 08:12:03 08:14:00 23° 201° (SSW) 08:15:56 2401.200-2431.200
TIGRISAT 16 Jan 08:12:40 08:14:54 14° 64° (ENE) 08:17:06 435.000
AAUSAT CUBESAT 2 16 Jan 08:21:40 08:25:51 69° 101° (E) 08:30:00 437.432
ANTELSAT 16 Jan 08:25:34 08:28:43 20° 66° (ENE) 08:31:51 437.575/2403.000
ZACube-1 16 Jan 08:28:56 08:32:58 37° 98° (E) 08:37:03 437.345
CUTE 1.7 + AOD 2 16 Jan 08:36:59 08:40:38 28° 291° (WNW) 08:44:18 437.475
NOAA 18 16 Jan 08:43:55 08:46:38 14° 302° (WNW) 08:49:22 137.9125
PCSat 16 Jan 08:46:01 08:47:59 12° 36° (NE) 08:49:58 145.827
DELFI C3 16 Jan 08:47:40 08:50:06 16° 92° (E) 08:52:32 145.870
O/OREOS (USA 219) 16 Jan 08:49:52 08:51:59 13° 308° (NW) 08:54:07 437.305
CUBEBUG 2 16 Jan 08:56:46 09:00:46 40° 288° (WNW) 09:04:52 437.445
PRISM 16 Jan 09:00:42 09:04:40 43° 261° (W) 09:08:40 437.425
RS-15 16 Jan 09:01:00 09:13:27 76° 55° (NE) 09:25:23 29.354- 29.394
CANX-2 16 Jan 09:06:35 09:08:33 13° 297° (WNW) 09:10:30 2200.000
GONETS M04 16 Jan 09:12:00 09:18:45 26° 279° (W) 09:25:31
Oscar 11 16 Jan 09:14:18 09:18:41 82° 283° (WNW) 09:23:01 145.826/435.025
HUMSAT D 16 Jan 09:23:08 09:26:33 23° 94° (E) 09:29:57 437.325/437.525
SO-50 16 Jan 09:24:57 09:29:38 60° 306° (NW) 09:34:15 436.795
SEEDS 16 Jan 09:27:56 09:29:50 13° 297° (WNW) 09:31:43 437.485
Cosmos 2499 16 Jan 09:29:38 09:31:10 11° 285° (WNW) 09:32:42 435.465 / 435.565
UNISAT 6 16 Jan 09:31:57 09:36:13 74° 258° (WSW) 09:40:29 437.425
UWE-3 16 Jan 09:35:50 09:39:22 25° 291° (WNW) 09:42:57 435.000/436.395/437.385
NANOSAT C BR1 16 Jan 09:36:36 09:37:44 11° 62° (ENE) 09:38:52 145.865
COMPASS 1 16 Jan 09:42:36 09:44:32 13° 297° (WNW) 09:46:28 437.405
JAS-2 16 Jan 09:44:27 09:49:23 44° 69° (ENE) 09:54:43 435.910
FUNcube-1 16 Jan 09:44:57 09:48:52 35° 289° (WNW) 09:52:53 145.935
HO-68 16 Jan 09:46:45 09:51:43 21° 304° (NW) 09:56:41 435.675
TIGRISAT 16 Jan 09:46:58 09:51:08 53° 260° (W) 09:55:18 435.000
AAUSAT CUBESAT 2 16 Jan 09:59:30 10:00:44 11° 298° (WNW) 10:01:56 437.432
ANTELSAT 16 Jan 10:01:17 10:05:12 35° 263° (W) 10:09:07 437.575/2403.000
ZACube-1 16 Jan 10:05:49 10:09:00 20° 293° (WNW) 10:12:14 437.345
BY70-1 16 Jan 10:12:38 10:14:59 17° 93° (E) 10:17:15 436.1900
DELFI C3 16 Jan 10:21:20 10:25:05 39° 288° (WNW) 10:28:47 145.870
QB50P1 16 Jan 10:22:44 10:26:37 37° 71° (ENE) 10:30:30 145.935-145.965
POLYITAN 1 16 Jan 10:25:17 10:29:12 40° 72° (ENE) 10:33:08 437.675
QB50P2 16 Jan 10:26:16 10:30:15 44° 72° (ENE) 10:34:16 145.880/145.840
BUGSAT 1 16 Jan 10:27:00 10:28:51 13° 63° (ENE) 10:30:40 437.445
PCSat 16 Jan 10:27:13 10:32:35 58° 57° (ENE) 10:37:55 145.827
ESTCUBE 1 16 Jan 10:34:06 10:37:17 18° 93° (E) 10:40:25 437.505/2401.250
POPSAT HIP 1 16 Jan 10:48:49 10:53:00 73° 74° (ENE) 10:57:11 437.405
HUMSAT D 16 Jan 10:58:24 11:02:09 31° 290° (WNW) 11:05:54 437.325/437.525
DUCHIFAT 1 16 Jan 11:05:40 11:09:51 83° 259° (W) 11:14:02 145.980
VELOX 1 16 Jan 11:06:37 11:08:59 14° 91° (E) 11:11:19 145.980
NANOSAT C BR1 16 Jan 11:08:42 11:12:52 70° 258° (WSW) 11:17:03 145.865
SO-50 16 Jan 11:09:32 11:11:02 11° 326° (NW) 11:12:31 436.795
RS-15 16 Jan 11:14:41 11:24:46 32° 257° (WSW) 11:34:34 29.354- 29.394
Cosmos 2491 16 Jan 11:30:27 11:34:26 13° 57° (ENE) 11:38:24 435.465 / 435.565
JAS-2 16 Jan 11:30:47 11:34:49 22° 268° (W) 11:39:04 435.910
BY70-1 16 Jan 11:42:29 11:45:24 26° 290° (WNW) 11:48:12 436.1900
Gurwin Techsat 1B 16 Jan 11:47:14 11:50:34 17° 61° (ENE) 11:53:53 435.225
DX 1 16 Jan 11:53:35 11:56:58 22° 95° (E) 12:00:19 434.975-435.025
QB50P1 16 Jan 11:59:36 12:02:30 18° 267° (W) 12:05:24 145.935-145.965
BUGSAT 1 16 Jan 11:59:44 12:03:45 55° 260° (W) 12:07:45 437.445
UKube-1 16 Jan 12:02:16 12:05:26 20° 94° (E) 12:08:35 .
POLYITAN 1 16 Jan 12:02:27 12:05:10 17° 267° (W) 12:07:54 437.675
CUBEBUG 1 16 Jan 12:03:45 12:08:06 81° 285° (WNW) 12:12:25 437.445
QB50P2 16 Jan 12:03:46 12:06:16 15° 268° (W) 12:08:47 145.880/145.840
AISAT 16 Jan 12:07:39 12:12:03 71° 102° (ESE) 12:16:24 437.250
Oscar 19 16 Jan 12:08:36 12:13:33 46° 70° (ENE) 12:18:32 437.125/150
SPROUT 16 Jan 12:09:07 12:13:16 51° 100° (E) 12:17:24 437.525
ESTCUBE 1 16 Jan 12:09:58 12:14:15 42° 289° (WNW) 12:18:31 437.505/2401.250
PCSat 16 Jan 12:11:40 12:15:30 20° 254° (WSW) 12:19:18 145.827
AO-7 16 Jan 12:24:29 12:28:48 15° 46° (NE) 12:33:07 29.400- 29.500
50 SAT 16 Jan 12:31:27 12:35:02 73° 284° (WNW) 12:38:33 437.505
VELOX 1 16 Jan 12:41:27 12:45:44 52° 287° (WNW) 12:49:59 145.980
CUSAT 1 16 Jan 12:43:29 12:48:00 16° 59° (ENE) 12:52:30 437.405
ITAMSAT 1 16 Jan 12:45:05 12:46:49 12° 58° (ENE) 12:48:35 435.822/435.867
Cosmos 2491 16 Jan 13:24:23 13:33:09 68° 79° (E) 13:41:54 435.465 / 435.565
Gurwin Techsat 1B 16 Jan 13:24:39 13:29:56 67° 258° (WSW) 13:35:15 435.225
DX 1 16 Jan 13:29:18 13:33:12 33° 291° (WNW) 13:37:03 434.975-435.025
AO-85 16 Jan 13:31:00 13:32:52 12° 109° (ESE) 13:34:41 145.980
YUBILEINY 16 Jan 13:33:24 13:40:54 33° 84° (E) 13:48:25 435.215
UKube-1 16 Jan 13:37:37 13:41:34 36° 290° (WNW) 13:45:29 .
AISAT 16 Jan 13:46:18 13:47:55 12° 299° (WNW) 13:49:30 437.250
SPROUT 16 Jan 13:46:23 13:48:45 15° 296° (WNW) 13:51:07 437.525
Oscar 19 16 Jan 13:49:08 13:53:04 22° 267° (W) 13:57:02 437.125/150
Cosmos 2504 16 Jan 13:51:37 13:57:53 23° 81° (E) 14:03:55 435.465 / 435.565
TISAT 1 16 Jan 13:53:30 13:57:40 76° 284° (WNW) 14:01:49 437.305
BEESAT 16 Jan 13:58:17 14:02:04 23° 94° (E) 14:05:50 436.000
SWISSCUBE 16 Jan 13:59:15 14:03:16 26° 95° (E) 14:07:16 437.505
AO-7 16 Jan 14:11:45 14:19:57 64° 66° (ENE) 14:28:12 29.400- 29.500
AIST 1 16 Jan 14:15:49 14:20:10 69° 95° (E) 14:24:32
ITAMSAT 1 16 Jan 14:20:18 14:25:28 86° 76° (ENE) 14:30:40 435.822/435.867
CUSAT 1 16 Jan 14:23:20 14:31:16 71° 78° (ENE) 14:38:57 437.405
DANDE 16 Jan 14:27:33 14:34:04 32° 71° (ENE) 14:41:17 436.750
MOZHAYETS 4 16 Jan 14:34:52 14:37:48 16° 92° (E) 14:40:42
ITUPSAT 1 16 Jan 14:57:27 15:02:16 89° 93° (E) 15:07:06 437.325
BRITE-PL 16 Jan 15:00:47 15:04:59 22° 64° (ENE) 15:09:09 437.365/2234.400
AO-85 16 Jan 15:08:03 15:12:48 76° 303° (WNW) 15:17:13 145.980
Cosmos 2491 16 Jan 15:22:26 15:29:12 26° 279° (W) 15:35:59 435.465 / 435.565
YUBILEINY 16 Jan 15:28:40 15:37:14 55° 283° (WNW) 15:45:54 435.215
GOMX 1 16 Jan 15:29:12 15:32:22 16° 63° (ENE) 15:35:30 467.674
BEESAT 16 Jan 15:35:31 15:39:56 38° 291° (WNW) 15:44:21 436.000
SWISSCUBE 16 Jan 15:36:46 15:41:04 33° 291° (WNW) 15:45:20 437.505
O/OREOS (USA 219) 16 Jan 15:39:24 15:42:10 16° 54° (NE) 15:44:55 437.305
Cosmos 2504 16 Jan 15:41:38 15:50:26 77° 279° (W) 15:58:47 435.465 / 435.565
KKS-1 16 Jan 15:46:47 15:50:36 28° 96° (E) 15:54:25 437.445
AUBIESAT-1 16 Jan 15:47:52 15:50:41 24° 101° (E) 15:53:26 437.475
HORYU 2 16 Jan 15:55:11 15:58:53 27° 68° (ENE) 16:02:37 437.375
AIST 1 16 Jan 15:57:15 15:58:16 11° 293° (WNW) 15:59:17
ITAMSAT 1 16 Jan 16:04:19 16:05:35 11° 271° (W) 16:06:51 435.822/435.867
AO-7 16 Jan 16:06:13 16:13:11 29° 265° (W) 16:20:13 29.400- 29.500
CUSAT 1 16 Jan 16:06:21 16:12:30 26° 276° (W) 16:18:31 437.405
NOAA 15 16 Jan 16:06:54 16:10:15 17° 61° (ENE) 16:13:36 137.62
DANDE 16 Jan 16:09:45 16:17:01 58° 266° (W) 16:25:08 436.750
MOZHAYETS 4 16 Jan 16:10:44 16:15:14 50° 287° (WNW) 16:19:42
SO-50 16 Jan 16:16:46 16:19:52 18° 41° (NE) 16:22:56 436.795
DOVE 4 16 Jan 16:30:18 16:34:11 23° 67° (ENE) 16:37:57 437.250
BRITE-PL 16 Jan 16:37:22 16:42:56 59° 260° (W) 16:48:35 437.365/2234.400
ITUPSAT 1 16 Jan 16:37:58 16:39:22 11° 301° (WNW) 16:40:45 437.325
CUTE-I 16 Jan 16:38:23 16:42:57 30° 66° (ENE) 16:47:33 437.470
M-CUBED/EXP-1 PRIME 16 Jan 16:41:17 16:44:36 44° 292° (WNW) 16:47:45 437.505
HO-68 16 Jan 16:43:43 16:46:29 13° 49° (NE) 16:49:15 435.675
CUBESAT XI-V 16 Jan 16:44:13 16:48:52 57° 100° (E) 16:53:27 437.345
NOAA 18 16 Jan 16:48:46 16:53:00 23° 63° (ENE) 16:57:13 137.9125
AO-85 16 Jan 16:52:06 16:53:52 12° 321° (NW) 16:55:36 145.980
STARS 16 Jan 16:52:09 16:56:30 67° 101° (ESE) 17:00:50 437.465
GOMX 1 16 Jan 17:04:23 17:09:51 74° 258° (WSW) 17:15:10 467.674
O/OREOS (USA 219) 16 Jan 17:17:31 17:21:57 58° 252° (WSW) 17:26:22 437.305
Cubesat XI-IV 16 Jan 17:19:14 17:24:30 69° 74° (ENE) 17:29:49 437.490
AUBIESAT-1 16 Jan 17:22:34 17:24:59 18° 298° (WNW) 17:27:21 437.475
KKS-1 16 Jan 17:23:22 17:27:05 27° 292° (WNW) 17:30:47 437.445
LilacSat-2 16 Jan 17:24:30 17:28:15 86° 76° (ENE) 17:32:03 437.200
BEESAT 3 16 Jan 17:24:47 17:28:40 89° 120° (ESE) 17:32:37 437.485
HORYU 2 16 Jan 17:31:36 17:35:21 27° 264° (W) 17:39:09 437.375
YUBILEINY 16 Jan 17:35:22 17:36:25 10° 307° (NW) 17:37:27 435.215
Cosmos 2504 16 Jan 17:40:21 17:45:09 16° 299° (WNW) 17:49:52 435.465 / 435.565
NOAA 15 16 Jan 17:44:13 17:49:28 66° 258° (WSW) 17:54:46 137.62
CUTE 1.7 + AOD 2 16 Jan 17:54:27 17:57:26 19° 66° (ENE) 18:00:26 437.475
SO-50 16 Jan 17:56:18 18:00:47 66° 240° (WSW) 18:05:12 436.795
DANDE 16 Jan 17:57:38 17:58:33 10° 281° (W) 17:59:30 436.750
BEESAT 2 16 Jan 17:59:49 18:03:45 90° 305° (NW) 18:07:45 435.950
DOVE 4 16 Jan 18:06:46 18:11:38 43° 262° (W) 18:16:17 437.250
CUTE-I 16 Jan 18:18:05 18:22:53 35° 263° (W) 18:27:44 437.470
Cosmos 2499 16 Jan 18:18:48 18:23:37 17° 79° (E) 18:28:16 435.465 / 435.565
CUBEBUG 2 16 Jan 18:20:11 18:22:32 15° 65° (ENE) 18:24:53 437.445
STRAND 1 16 Jan 18:21:17 18:24:45 18° 92° (E) 18:28:11 437.568
CANX-2 16 Jan 18:21:31 18:25:31 42° 72° (ENE) 18:29:33 2200.000
CUBESAT XI-V 16 Jan 18:22:54 18:25:45 16° 297° (WNW) 18:28:35 437.345
GONETS M04 16 Jan 18:23:49 18:27:59 14° 75° (ENE) 18:32:10
HO-68 16 Jan 18:25:44 18:32:47 62° 69° (ENE) 18:39:53 435.675
NOAA 18 16 Jan 18:27:58 18:33:18 51° 259° (W) 18:38:39 137.9125
CINEMA 3 16 Jan 18:30:22 18:34:55 84° 76° (ENE) 18:39:17 145.822/145.860
STARS 16 Jan 18:30:29 18:32:17 12° 299° (WNW) 18:34:06 437.465
SEEDS 16 Jan 18:41:55 18:45:52 40° 72° (ENE) 18:49:51 437.485
COMPASS 1 16 Jan 18:55:50 18:59:42 38° 72° (ENE) 19:03:36 437.405
UWE-3 16 Jan 18:56:47 19:00:03 23° 68° (ENE) 19:03:19 435.000/436.395/437.385
Cubesat XI-IV 16 Jan 19:02:11 19:05:05 15° 270° (W) 19:07:59 437.490
BEESAT 3 16 Jan 19:05:22 19:06:52 12° 321° (NW) 19:08:24 437.485
FUNcube-1 16 Jan 19:05:45 19:08:16 16° 65° (ENE) 19:10:48 145.935
AAUSAT CUBESAT 2 16 Jan 19:11:32 19:15:29 43° 72° (ENE) 19:19:28 437.432
AIST 2 16 Jan 19:21:20 19:23:12 13° 108° (ESE) 19:25:05 435.215
ZACube-1 16 Jan 19:25:07 19:28:38 28° 69° (ENE) 19:32:10 437.345
CUTE 1.7 + AOD 2 16 Jan 19:29:03 19:32:59 38° 262° (W) 19:36:59 437.475
BEESAT 2 16 Jan 19:40:35 19:42:09 12° 321° (NW) 19:43:43 435.950
CUBEBUG 2 16 Jan 19:54:43 19:58:47 47° 261° (W) 20:02:49 437.445
CANX-2 16 Jan 19:58:53 20:01:34 16° 268° (W) 20:04:16 2200.000
STRAND 1 16 Jan 19:59:14 20:04:14 54° 288° (WNW) 20:09:14 437.568
Cosmos 2499 16 Jan 20:07:04 20:15:41 87° 95° (E) 20:23:43 435.465 / 435.565
Oscar 11 16 Jan 20:08:40 20:12:57 75° 77° (ENE) 20:17:17 145.826/435.025
GONETS M04 16 Jan 20:14:34 20:23:14 79° 95° (E) 20:32:00
HUMSAT D 16 Jan 20:15:13 20:17:44 16° 65° (ENE) 20:20:17 437.325/437.525
HO-68 16 Jan 20:15:13 20:20:56 25° 267° (W) 20:26:41 435.675
SEEDS 16 Jan 20:19:00 20:21:43 17° 268° (W) 20:24:28 437.485
COMPASS 1 16 Jan 20:32:34 20:35:23 18° 268° (W) 20:38:14 437.405
UWE-3 16 Jan 20:32:46 20:36:23 28° 264° (W) 20:40:00 435.000/436.395/437.385
FUNcube-1 16 Jan 20:40:14 20:44:10 43° 261° (W) 20:48:07 145.935
PRISM 16 Jan 20:42:18 20:45:39 24° 95° (E) 20:48:58 437.425
AAUSAT CUBESAT 2 16 Jan 20:48:42 20:51:10 15° 269° (W) 20:53:39 437.432
AIST 2 16 Jan 20:57:05 21:01:09 59° 306° (NW) 21:05:17 435.215
ZACube-1 16 Jan 21:01:34 21:04:54 23° 265° (W) 21:08:14 437.345
DELFI C3 16 Jan 21:06:11 21:10:10 71° 258° (WSW) 21:14:12 145.870
UNISAT 6 16 Jan 21:23:45 21:27:13 22° 95° (E) 21:30:42 437.425
ESTCUBE 1 16 Jan 21:33:58 21:37:02 18° 64° (ENE) 21:40:07 437.505/2401.250
TIGRISAT 16 Jan 21:38:09 21:41:59 29° 96° (E) 21:45:53 435.000
HUMSAT D 16 Jan 21:49:07 21:52:59 42° 261° (W) 21:56:56 437.325/437.525
ANTELSAT 16 Jan 21:52:01 21:56:13 44° 99° (E) 22:00:30 437.575/2403.000
BY70-1 16 Jan 21:57:13 22:00:00 53° 74° (ENE) 22:03:04 436.1900
AO-85 16 Jan 22:01:12 22:02:29 11° 38° (NE) 22:03:45 145.980
Cosmos 2499 16 Jan 22:04:04 22:09:45 19° 295° (WNW) 22:15:13 435.465 / 435.565
VELOX 1 16 Jan 22:04:21 22:06:41 14° 63° (ENE) 22:09:02 145.980
GONETS M04 16 Jan 22:14:34 22:21:03 23° 296° (WNW) 22:27:37
PRISM 16 Jan 22:17:23 22:20:55 27° 291° (WNW) 22:24:23 437.425
ISS 16 Jan 22:34:54 22:36:58 16° 131° (SE) 22:39:01 145.825
POPSAT HIP 1 16 Jan 22:35:34 22:37:00 11° 90° (E) 22:38:26 437.405
JAS-2 16 Jan 22:36:05 22:42:50 47° 99° (E) 22:50:10 435.910
DX 1 16 Jan 22:49:21 22:52:34 20° 66° (ENE) 22:55:48 434.975-435.025
DUCHIFAT 1 16 Jan 22:50:50 22:53:15 15° 92° (E) 22:55:42 145.980
NANOSAT C BR1 16 Jan 22:53:45 22:56:39 18° 93° (E) 22:59:32 145.865
UKube-1 16 Jan 22:57:08 23:00:05 18° 65° (ENE) 23:03:01 .
CUBEBUG 1 16 Jan 22:59:11 23:03:37 83° 74° (ENE) 23:08:02 437.445
UNISAT 6 16 Jan 23:00:00 23:03:57 34° 290° (WNW) 23:07:59 437.425
SPROUT 16 Jan 23:02:25 23:06:22 38° 71° (ENE) 23:10:19 437.525
AISAT 16 Jan 23:04:34 23:08:58 63° 74° (ENE) 23:13:22 437.250
50 SAT 16 Jan 23:05:56 23:09:18 41° 73° (ENE) 23:12:43 437.505
ESTCUBE 1 16 Jan 23:09:07 23:13:28 46° 261° (W) 23:17:51 437.505/2401.250
TIGRISAT 16 Jan 23:14:57 23:18:34 26° 292° (WNW) 23:22:15 435.000
RS-15 16 Jan 23:23:42 23:34:44 49° 109° (ESE) 23:46:12 29.354- 29.394
ANTELSAT 16 Jan 23:29:38 23:32:37 18° 294° (WNW) 23:35:37 437.575/2403.000
VELOX 1 16 Jan 23:38:15 23:42:39 60° 259° (W) 23:47:03 145.980
AO-85 16 Jan 23:39:34 23:43:30 90° 253° (WSW) 23:47:24 145.980
BUGSAT 1 16 Jan 23:41:57 23:44:53 19° 94° (E) 23:47:48 437.445
QB50P1 16 Jan 23:42:26 23:46:38 70° 101° (E) 23:50:50 145.935-145.965
YUBILEINY 16 Jan 23:43:53 23:48:53 16° 59° (ENE) 23:53:51 435.215
POLYITAN 1 16 Jan 23:45:13 23:49:26 76° 101° (ESE) 23:53:40 437.675
QB50P2 16 Jan 23:46:18 23:50:33 84° 103° (ESE) 23:54:47 145.880/145.840
POPSAT HIP 1 17 Jan 00:08:59 00:13:08 59° 286° (WNW) 00:17:17 437.405
ISS 17 Jan 00:09:56 00:13:08 58° 327° (NNW) 00:16:21 145.825
Oscar 19 17 Jan 00:21:20 00:24:27 16° 91° (E) 00:27:31 437.125/150
JAS-2 17 Jan 00:21:28 00:27:40 36° 293° (WNW) 00:34:25 435.910
AIST 1 17 Jan 00:23:46 00:26:35 17° 71° (ENE) 00:29:23
DX 1 17 Jan 00:24:26 00:28:30 37° 262° (W) 00:32:35 434.975-435.025
DUCHIFAT 1 17 Jan 00:25:10 00:29:09 44° 288° (WNW) 00:33:09 145.980
NANOSAT C BR1 17 Jan 00:28:36 00:32:29 37° 289° (WNW) 00:36:22 145.865
ITUPSAT 1 17 Jan 00:29:44 00:31:38 12° 60° (ENE) 00:33:33 437.325
UKube-1 17 Jan 00:31:41 00:35:47 42° 261° (W) 00:39:55 .
Cosmos 2491 17 Jan 00:34:34 00:38:35 14° 75° (ENE) 00:42:36 435.465 / 435.565
SPROUT 17 Jan 00:39:30 00:42:25 18° 267° (W) 00:45:21 437.525
50 SAT 17 Jan 00:41:25 00:42:44 12° 268° (W) 00:44:03 437.505
AISAT 17 Jan 00:44:02 00:45:49 12° 270° (W) 00:47:36 437.250
TISAT 1 17 Jan 00:44:39 00:48:49 79° 76° (ENE) 00:53:00 437.305
BEESAT 17 Jan 01:04:43 01:08:41 27° 67° (ENE) 01:12:40 436.000
SWISSCUBE 17 Jan 01:05:42 01:09:50 31° 68° (ENE) 01:14:00 437.505
PCSat 17 Jan 01:08:45 01:13:59 52° 114° (ESE) 01:19:14 145.827
BUGSAT 1 17 Jan 01:16:43 01:20:18 32° 290° (WNW) 01:23:54 437.445
QB50P1 17 Jan 01:20:38 01:21:49 11° 298° (WNW) 01:23:00 145.935-145.965
POLYITAN 1 17 Jan 01:24:01 01:24:37 10° 299° (WNW) 01:25:12 437.675
Cosmos 2504 17 Jan 01:35:16 01:42:09 38° 72° (ENE) 01:48:43 435.465 / 435.565
RS-15 17 Jan 01:35:24 01:47:05 57° 313° (NW) 01:59:15 29.354- 29.394
MOZHAYETS 4 17 Jan 01:37:12 01:40:02 17° 64° (ENE) 01:42:54
YUBILEINY 17 Jan 01:38:28 01:47:20 77° 81° (E) 01:56:07 435.215
Gurwin Techsat 1B 17 Jan 01:40:47 01:45:57 48° 100° (E) 01:51:03 435.225
BEESAT 3 17 Jan 01:41:35 01:45:30 50° 54° (NE) 01:49:23 437.485
ISS 17 Jan 01:47:55 01:50:08 17° 346° (NNW) 01:52:21 145.825
M-CUBED/EXP-1 PRIME 17 Jan 01:53:12 01:56:25 20° 62° (ENE) 01:59:30 437.505
Oscar 19 17 Jan 01:59:04 02:04:11 62° 287° (WNW) 02:09:15 437.125/150
AIST 1 17 Jan 02:00:22 02:04:21 39° 268° (W) 02:08:18
ITUPSAT 1 17 Jan 02:04:02 02:08:47 79° 256° (WSW) 02:13:35 437.325
AO-7 17 Jan 02:14:54 02:20:27 19° 91° (E) 02:25:55 29.400- 29.500
BEESAT 2 17 Jan 02:17:29 02:21:27 53° 54° (NE) 02:25:24 435.950
Cosmos 2491 17 Jan 02:25:10 02:33:50 78° 95° (E) 02:42:33 435.465 / 435.565
AUBIESAT-1 17 Jan 02:32:24 02:36:28 40° 67° (ENE) 02:40:20 437.475
ITAMSAT 1 17 Jan 02:33:25 02:37:58 30° 96° (E) 02:42:29 435.822/435.867
BEESAT 17 Jan 02:42:07 02:46:20 32° 263° (W) 02:50:36 436.000
SWISSCUBE 17 Jan 02:43:32 02:47:35 28° 264° (W) 02:51:41 437.505
KKS-1 17 Jan 02:44:53 02:48:38 27° 68° (ENE) 02:52:23 437.445
PCSat 17 Jan 02:53:12 02:57:39 25° 313° (NW) 03:02:09 145.827
MOZHAYETS 4 17 Jan 03:12:20 03:16:46 52° 260° (W) 03:21:15
BEESAT 3 17 Jan 03:20:30 03:22:41 14° 250° (WSW) 03:24:52 437.485
Gurwin Techsat 1B 17 Jan 03:21:29 03:25:32 23° 296° (WNW) 03:29:36 435.225
CUSAT 1 17 Jan 03:25:05 03:29:37 61° 94° (E) 03:35:38 437.405
ISS 17 Jan 03:25:42 03:27:36 14° 7° (N) 03:29:29 145.825
PHONESAT 2.4 17 Jan 03:26:02 03:27:52 20° 158° (SSE) 03:29:42 2401.200-2431.200
M-CUBED/EXP-1 PRIME 17 Jan 03:26:21 03:30:38 42° 256° (WSW) 03:34:41 437.505
Cosmos 2504 17 Jan 03:28:43 03:35:29 39° 273° (W) 03:41:58 435.465 / 435.565
YUBILEINY 17 Jan 03:36:50 03:43:06 22° 281° (W) 03:49:22 435.215
DANDE 17 Jan 03:39:04 03:41:14 15° 82° (E) 03:43:43 436.750
AIST 2 17 Jan 03:41:18 03:43:18 13° 39° (NE) 03:45:18 435.215
CUBESAT XI-V 17 Jan 03:47:11 03:51:45 55° 73° (ENE) 03:56:22 437.345
STARS 17 Jan 03:48:28 03:52:47 59° 73° (ENE) 03:57:06 437.465
RS-15 17 Jan 03:53:32 04:03:13 26° 344° (NNW) 04:13:02 29.354- 29.394
BEESAT 2 17 Jan 03:56:41 03:58:48 14° 251° (WSW) 04:00:54 435.950
AUBIESAT-1 17 Jan 04:07:47 04:10:56 19° 260° (W) 04:13:58 437.475
